This is the latest recevied weather packets stored in our database for station/object EA1FWM-13. If no packets are shown the sender has not sent any weather packets the latest 10 day(s).
| Time | Temp. | Humidity | Pressure | Rain* | Wind** | Luminosity | Snow |
|---|---|---|---|---|---|---|---|
| 1777432908 | 12.78° C | 84% | 1009.9 hPa | - | - | - | - |
| 1777432007 | 12.78° C | 83% | 1010.1 hPa | - | - | - | - |
| 1777431106 | 13.33° C | 83% | 1010.2 hPa | - | - | - | - |
| 1777430205 | 13.33° C | 83% | 1010.3 hPa | - | - | - | - |
| 1777429304 | 13.33° C | 83% | 1010.5 hPa | - | - | - | - |
| 1777428403 | 13.33° C | 83% | 1010.6 hPa | - | - | - | - |
| 1777427502 | 13.33° C | 83% | 1010.7 hPa | - | - | - | - |
| 1777426601 | 13.33° C | 82% | 1010.7 hPa | - | - | - | - |
| 1777425701 | 13.89° C | 82% | 1011 hPa | - | - | - | - |
| 1777424800 | 13.89° C | 83% | 1011.2 hPa | - | - | - | - |
| 1777423899 | 13.89° C | 83% | 1011.2 hPa | - | - | - | - |
| 1777422998 | 13.89° C | 82% | 1011.5 hPa | - | - | - | - |
| 1777422097 | 14.44° C | 81% | 1011.5 hPa | - | - | - | - |
| 1777421196 | 14.44° C | 81% | 1011.5 hPa | - | - | - | - |
| 1777420295 | 14.44° C | 81% | 1011.6 hPa | - | - | - | - |
| 1777419395 | 14.44° C | 81% | 1011.7 hPa | - | - | - | - |
| 1777418494 | 14.44° C | 80% | 1011.7 hPa | - | - | - | - |
| 1777417593 | 15° C | 78% | 1011.6 hPa | - | - | - | - |
| 1777416692 | 15° C | 78% | 1011.7 hPa | - | - | - | - |
| 1777415790 | 15° C | 78% | 1011.8 hPa | - | - | - | - |
| 1777414889 | 15° C | 80% | 1011.8 hPa | - | - | - | - |
| 1777413988 | 14.44° C | 86% | 1011.8 hPa | - | - | - | - |
| 1777413088 | 14.44° C | 87% | 1011.9 hPa | - | - | - | - |
| 1777412187 | 14.44° C | 87% | 1011.8 hPa | - | - | - | - |
| 1777411286 | 14.44° C | 88% | 1011.9 hPa | - | - | - | - |
* Rain since midnight (hover to see other rain measurements)
** Current wind speed in m/s (hover to see current wind gust speed)